Location: El Limón
(10.3059°N, 67.6321°W)
Time: 14:52:16
(UTC+00:00)

ARIANE 5 R/B - Pass Details

Date: 14 April 2024
Orbit: 498 x 17444 km, 6.8° (Epoch: 27 May)

Event Time Altitude Azimuth Distance (km) Brightness Sun altitude
Rises 07:44:37 0° 269° (W) 17,190 8.4 -37.8°
Enters shadow 07:50:25 - 269° (W) 16,156 8.3 -36.5°
Exits shadow 08:33:37 34° 263° (W) 4,669 5.4 -26.4°
Maximum altitude 08:42:24 73° 187° (S) 1,820 3.7 -24.3°
Drops below altitude 10° 08:48:14 10° 102° (ESE) 2,622 5.6 -22.9°
Sets 08:49:47 0° 99° (E) 3,230 6.3 -22.6°
